Cortez, CO

4:37 AM MST on December 13, 2017 (GMT -0700)
Cortez Municipal

Weather History for KCEZ - May, 2009

Change the Weather History Date:

Tuesday, May 12, 2009

  Actual Average Record
Temperature  
Mean Temperature 64 °F 54 °F  
Max Temperature 82 °F 73 °F 86 °F (2007)
Min Temperature 46 °F 36 °F 25 °F (2005)
Degree Days  
Heating Degree Days 1 11  
Month to date heating degree days 146  
Since 1 July heating degree days 6216  
Cooling Degree Days 0 0  
Month to date cooling degree days 0  
Year to date cooling degree days 0  
Growing Degree Days 14 (Base 50)    
Moisture  
Dew Point 22 °F    
Average Humidity 20    
Maximum Humidity 50    
Minimum Humidity 9    
Precipitation  
Precipitation 0.00 in 0.04 in 0.07 in (2002)
Month to date precipitation 0.48  
Year to date precipitation 4.70  
Sea Level Pressure  
Sea Level Pressure 29.69 in    
Wind  
Wind Speed 11 mph (SSW)    
Max Wind Speed 25 mph    
Max Gust Speed 33 mph    
Visibility 10 miles    
Events      
T = Trace of Precipitation, MM = Missing Value Source: NWS Daily Summary

Daily Weather History Graph

Daily Weather History Graph

Search for Another Location

Airport or City:

Trip Planner

Search our weather history database for the weather conditions in past years. The results will help you decide how hot, cold, wet, or windy it might be!

Date:

Astronomy

May. 12, 2009 Rise Set
Actual Time 6:08 AM MDT 8:14 PM MDT
Civil Twilight 5:39 AM MDT 8:43 PM MDT
Nautical Twilight 5:03 AM MDT 9:18 PM MDT
Astronomical Twilight 4:25 AM MDT 9:56 PM MDT
Moon 11:51 PM MDT (5/12) 8:27 AM MDT (5/12)
Length of Visible Light 15h 03m
Length of Day
14h 05m
Waning Gibbous, 88% of the Moon is Illuminated
May 12
Waning Gibbous
May 17
Last Quarter
May 24
New
May 30
First Quarter
Jun 7
Full

Hourly Weather History & Observations

Time (MDT) Temp. Dew Point Humidity Pressure Visibility Wind Dir Wind Speed Gust Speed Precip Events Conditions
12:53 AM 64.0 °F 23.0 °F 21% 29.70 in 10.0 mi SSW 15.0 mph - N/A   Clear
1:53 AM 64.0 °F 24.1 °F 22% 29.70 in 10.0 mi Calm Calm - N/A   Clear
3:53 AM 64.0 °F 21.9 °F 20% 29.69 in 10.0 mi South 16.1 mph - N/A   Clear
4:53 AM 60.1 °F 23.0 °F 24% 29.72 in 10.0 mi SSW 11.5 mph - N/A   Clear
6:53 AM 46.9 °F 28.9 °F 50% 29.79 in 10.0 mi ENE 6.9 mph - N/A   Clear
7:53 AM 55.0 °F 32.0 °F 42% 29.79 in 10.0 mi East 4.6 mph - N/A   Clear
8:53 AM 64.0 °F 32.0 °F 30% 29.80 in 10.0 mi Calm Calm - N/A   Clear
9:53 AM 70.0 °F 28.0 °F 21% 29.79 in 10.0 mi Calm Calm - N/A   Clear
10:53 AM 75.0 °F 25.0 °F 16% 29.77 in 10.0 mi South 10.4 mph - N/A   Clear
11:53 AM 78.1 °F 21.9 °F 12% 29.74 in 10.0 mi SW 20.7 mph 25.3 mph N/A   Clear
12:53 PM 80.1 °F 21.0 °F 11% 29.69 in 10.0 mi SW 17.3 mph 23.0 mph N/A   Clear
1:53 PM 80.1 °F 21.0 °F 11% 29.66 in 10.0 mi WSW 10.4 mph 26.5 mph N/A   Clear
2:53 PM 82.0 °F 19.0 °F 10% 29.63 in 10.0 mi West 20.7 mph 32.2 mph N/A   Clear
3:00 PM 82.4 °F 19.4 °F 10% 29.89 in 10.0 mi West 25.3 mph 33.4 mph N/A   Clear
3:53 PM 82.9 °F 19.9 °F 10% 29.59 in 10.0 mi SW 15.0 mph 27.6 mph N/A   Clear
4:53 PM 82.0 °F 18.0 °F 9% 29.59 in 10.0 mi SW 20.7 mph 32.2 mph N/A   Clear
5:53 PM 81.0 °F 16.0 °F 9% 29.60 in 10.0 mi SW 18.4 mph 27.6 mph N/A   Clear
6:53 PM 77.0 °F 15.1 °F 10% 29.61 in 10.0 mi WSW 12.7 mph 21.9 mph N/A   Clear
7:53 PM 73.9 °F 16.0 °F 11% 29.60 in 10.0 mi SW 10.4 mph - N/A   Clear
8:53 PM 66.9 °F 19.0 °F 16% 29.60 in 10.0 mi SSW 8.1 mph - N/A   Clear
9:53 PM 61.0 °F 21.0 °F 21% 29.62 in 10.0 mi Calm Calm - N/A   Clear
10:53 PM 54.0 °F 27.0 °F 35% 29.64 in 10.0 mi ENE 9.2 mph - N/A   Clear
11:53 PM 53.1 °F 23.0 °F 31% 29.65 in 10.0 mi ENE 6.9 mph - N/A   Clear